Time,TemperatureF,DewpointF,PressureIn,WindDirection,WindDirectionDegrees,WindSpeedMPH,WindSpeedGustMPH,Humidity,HourlyPrecipIn,Conditions,Clouds,dailyrainin,SoftwareType,DateUTC
2015-07-30 00:03:00,68.3,65.3,29.91,South,176,0.0,0.0,90,0.00,,,0.00,Wunderground v.1.15,2015-07-30 04:03:00,
2015-07-30 00:08:00,68.2,65.2,29.91,South,176,0.0,0.0,90,0.00,,,0.00,Wunderground v.1.15,2015-07-30 04:08:00,
2015-07-30 00:13:00,68.1,65.4,29.91,South,176,0.0,0.0,91,0.00,,,0.00,Wunderground v.1.15,2015-07-30 04:13:00,
2015-07-30 00:19:00,67.8,65.1,29.90,South,176,0.0,0.0,91,0.00,,,0.00,Wunderground v.1.15,2015-07-30 04:19:00,
2015-07-30 00:25:00,67.6,65.2,29.90,South,176,0.0,0.0,92,0.00,,,0.00,Wunderground v.1.15,2015-07-30 04:25:00,
2015-07-30 00:31:00,67.4,65.0,29.91,South,176,0.0,0.0,92,0.00,,,0.00,Wunderground v.1.15,2015-07-30 04:31:00,
2015-07-30 00:37:00,67.3,64.6,29.90,South,176,0.0,0.0,91,0.00,,,0.00,Wunderground v.1.15,2015-07-30 04:37:00,
2015-07-30 00:42:00,67.3,64.9,29.90,South,176,0.0,0.0,92,0.00,,,0.00,Wunderground v.1.15,2015-07-30 04:42:00,
2015-07-30 00:59:00,67.2,64.5,29.90,South,176,0.0,0.0,91,0.00,,,0.00,Wunderground v.1.15,2015-07-30 04:59:00,
2015-07-30 01:10:00,67.1,64.4,29.90,South,176,0.0,0.0,91,0.00,,,0.00,Wunderground v.1.15,2015-07-30 05:10:00,
2015-07-30 01:16:00,67.1,64.4,29.90,South,176,0.0,0.0,91,0.00,,,0.00,Wunderground v.1.15,2015-07-30 05:16:00,
2015-07-30 01:21:00,67.0,64.3,29.90,South,176,0.0,0.0,91,0.00,,,0.00,Wunderground v.1.15,2015-07-30 05:21:00,
2015-07-30 01:27:00,67.0,64.3,29.90,South,176,0.0,0.0,91,0.00,,,0.00,Wunderground v.1.15,2015-07-30 05:27:00,
2015-07-30 01:33:00,67.0,64.3,29.90,South,176,0.0,0.0,91,0.00,,,0.00,Wunderground v.1.15,2015-07-30 05:33:00,
2015-07-30 01:39:00,67.0,64.0,29.90,South,176,0.0,0.0,90,0.00,,,0.00,Wunderground v.1.15,2015-07-30 05:39:00,
2015-07-30 01:44:00,67.2,63.8,29.90,South,176,0.0,0.0,89,0.00,,,0.00,Wunderground v.1.15,2015-07-30 05:44:00,
2015-07-30 01:50:00,67.7,64.0,29.90,South,176,0.0,0.0,88,0.00,,,0.00,Wunderground v.1.15,2015-07-30 05:50:00,
2015-07-30 01:56:00,67.7,64.0,29.90,South,176,0.0,0.0,88,0.00,,,0.00,Wunderground v.1.15,2015-07-30 05:56:00,
2015-07-30 02:01:00,67.7,64.0,29.90,South,176,0.0,0.0,88,0.00,,,0.00,Wunderground v.1.15,2015-07-30 06:01:00,
2015-07-30 02:06:00,67.6,63.9,29.90,South,176,0.0,0.0,88,0.00,,,0.00,Wunderground v.1.15,2015-07-30 06:06:00,
2015-07-30 02:11:00,67.4,63.7,29.90,South,176,0.0,0.0,88,0.00,,,0.00,Wunderground v.1.15,2015-07-30 06:11:00,
2015-07-30 02:16:00,67.2,63.5,29.90,South,176,0.0,0.0,88,0.00,,,0.00,Wunderground v.1.15,2015-07-30 06:16:00,
2015-07-30 02:21:00,67.1,63.7,29.90,South,176,0.0,0.0,89,0.00,,,0.00,Wunderground v.1.15,2015-07-30 06:21:00,
2015-07-30 02:26:00,67.0,63.6,29.89,South,176,0.0,0.0,89,0.00,,,0.00,Wunderground v.1.15,2015-07-30 06:26:00,
2015-07-30 02:31:00,67.0,64.0,29.89,South,176,0.0,0.0,90,0.00,,,0.00,Wunderground v.1.15,2015-07-30 06:31:00,
2015-07-30 02:36:00,67.1,63.7,29.90,South,176,0.0,0.0,89,0.00,,,0.00,Wunderground v.1.15,2015-07-30 06:36:00,
2015-07-30 02:46:00,67.6,64.2,29.90,South,176,0.0,0.0,89,0.00,,,0.00,Wunderground v.1.15,2015-07-30 06:46:00,
2015-07-30 02:51:00,67.7,64.0,29.90,South,176,0.0,0.0,88,0.00,,,0.00,Wunderground v.1.15,2015-07-30 06:51:00,
2015-07-30 02:56:00,67.8,64.1,29.90,South,176,0.0,0.0,88,0.00,,,0.00,Wunderground v.1.15,2015-07-30 06:56:00,
2015-07-30 03:01:00,67.9,64.2,29.90,South,176,0.0,0.0,88,0.00,,,0.00,Wunderground v.1.15,2015-07-30 07:01:00,
2015-07-30 03:07:00,68.1,64.4,29.89,South,176,0.0,0.0,88,0.00,,,0.00,Wunderground v.1.15,2015-07-30 07:07:00,
2015-07-30 03:12:00,68.2,64.5,29.89,South,176,0.0,0.0,88,0.00,,,0.00,Wunderground v.1.15,2015-07-30 07:12:00,
2015-07-30 03:17:00,68.3,64.6,29.89,South,176,0.0,0.0,88,0.00,,,0.00,Wunderground v.1.15,2015-07-30 07:17:00,
2015-07-30 03:21:00,68.4,64.7,29.89,South,176,0.0,0.0,88,0.00,,,0.00,Wunderground v.1.15,2015-07-30 07:21:00,
2015-07-30 03:27:00,68.5,64.8,29.89,South,176,0.0,0.0,88,0.00,,,0.00,Wunderground v.1.15,2015-07-30 07:27:00,
2015-07-30 03:32:00,68.6,64.6,29.89,South,175,0.0,0.0,87,0.00,,,0.00,Wunderground v.1.15,2015-07-30 07:32:00,
2015-07-30 03:37:00,68.6,64.9,29.89,South,176,0.0,0.0,88,0.00,,,0.00,Wunderground v.1.15,2015-07-30 07:37:00,
2015-07-30 03:42:00,68.5,64.5,29.89,South,176,0.0,0.0,87,0.00,,,0.00,Wunderground v.1.15,2015-07-30 07:42:00,
2015-07-30 03:47:00,68.6,64.6,29.89,South,176,0.0,0.0,87,0.00,,,0.00,Wunderground v.1.15,2015-07-30 07:47:00,
2015-07-30 03:52:00,68.6,64.6,29.89,South,176,0.0,0.0,87,0.00,,,0.00,Wunderground v.1.15,2015-07-30 07:52:00,
2015-07-30 03:57:00,68.6,64.9,29.89,South,176,0.0,0.0,88,0.00,,,0.00,Wunderground v.1.15,2015-07-30 07:57:00,
2015-07-30 04:02:00,68.5,64.8,29.89,South,176,0.0,0.0,88,0.00,,,0.00,Wunderground v.1.15,2015-07-30 08:02:00,
2015-07-30 04:07:00,68.4,64.7,29.89,South,176,0.0,0.0,88,0.00,,,0.00,Wunderground v.1.15,2015-07-30 08:07:00,
2015-07-30 04:12:00,68.4,64.7,29.89,South,176,0.0,0.0,88,0.00,,,0.00,Wunderground v.1.15,2015-07-30 08:12:00,
2015-07-30 04:17:00,68.3,64.6,29.89,South,176,0.0,0.0,88,0.00,,,0.00,Wunderground v.1.15,2015-07-30 08:17:00,
2015-07-30 04:22:00,68.3,64.6,29.89,South,176,0.0,0.0,88,0.00,,,0.00,Wunderground v.1.15,2015-07-30 08:22:00,
2015-07-30 04:27:00,68.3,64.6,29.88,South,176,0.0,0.0,88,0.00,,,0.00,Wunderground v.1.15,2015-07-30 08:27:00,
2015-07-30 04:32:00,68.2,64.8,29.88,South,176,0.0,0.0,89,0.00,,,0.00,Wunderground v.1.15,2015-07-30 08:32:00,
2015-07-30 04:37:00,68.1,64.7,29.88,South,176,0.0,0.0,89,0.00,,,0.00,Wunderground v.1.15,2015-07-30 08:37:00,
2015-07-30 04:42:00,68.1,64.7,29.88,South,176,0.0,0.0,89,0.00,,,0.00,Wunderground v.1.15,2015-07-30 08:42:00,
2015-07-30 04:47:00,68.0,64.6,29.88,South,176,0.0,0.0,89,0.00,,,0.00,Wunderground v.1.15,2015-07-30 08:47:00,
2015-07-30 04:52:00,68.0,64.6,29.88,South,176,0.0,0.0,89,0.00,,,0.00,Wunderground v.1.15,2015-07-30 08:52:00,
2015-07-30 04:57:00,67.9,64.9,29.88,South,176,0.0,0.0,90,0.00,,,0.00,Wunderground v.1.15,2015-07-30 08:57:00,
2015-07-30 05:02:00,67.8,64.8,29.88,South,176,0.0,0.0,90,0.00,,,0.00,Wunderground v.1.15,2015-07-30 09:02:00,
2015-07-30 05:07:00,67.7,64.7,29.88,South,176,0.0,0.0,90,0.00,,,0.00,Wunderground v.1.15,2015-07-30 09:07:00,
2015-07-30 05:12:00,67.7,64.7,29.88,South,176,0.0,0.0,90,0.00,,,0.00,Wunderground v.1.15,2015-07-30 09:12:00,
2015-07-30 05:17:00,67.6,64.6,29.88,South,176,0.0,0.0,90,0.00,,,0.00,Wunderground v.1.15,2015-07-30 09:17:00,
2015-07-30 05:22:00,67.5,64.8,29.88,South,176,0.0,0.0,91,0.00,,,0.00,Wunderground v.1.15,2015-07-30 09:22:00,
2015-07-30 05:27:00,67.4,64.7,29.88,South,176,0.0,0.0,91,0.00,,,0.00,Wunderground v.1.15,2015-07-30 09:27:00,
2015-07-30 05:32:00,67.2,64.5,29.88,South,176,0.0,0.0,91,0.00,,,0.00,Wunderground v.1.15,2015-07-30 09:32:00,
2015-07-30 05:37:00,67.1,64.4,29.88,South,176,0.0,0.0,91,0.00,,,0.00,Wunderground v.1.15,2015-07-30 09:37:00,
2015-07-30 05:42:00,66.9,64.5,29.88,South,176,0.0,0.0,92,0.00,,,0.00,Wunderground v.1.15,2015-07-30 09:42:00,
2015-07-30 05:47:00,66.8,64.4,29.88,South,176,0.0,0.0,92,0.00,,,0.00,Wunderground v.1.15,2015-07-30 09:47:00,
2015-07-30 05:52:00,66.7,64.3,29.88,South,176,0.0,0.0,92,0.00,,,0.00,Wunderground v.1.15,2015-07-30 09:52:00,
2015-07-30 05:57:00,66.7,64.3,29.88,South,176,0.0,0.0,92,0.00,,,0.00,Wunderground v.1.15,2015-07-30 09:57:00,
2015-07-30 06:02:00,66.7,64.6,29.88,South,176,0.0,0.0,93,0.00,,,0.00,Wunderground v.1.15,2015-07-30 10:02:00,
2015-07-30 06:07:00,66.7,64.6,29.88,South,176,0.0,0.0,93,0.00,,,0.00,Wunderground v.1.15,2015-07-30 10:07:00,
2015-07-30 06:12:00,66.8,64.7,29.88,South,176,0.0,0.0,93,0.00,,,0.00,Wunderground v.1.15,2015-07-30 10:12:00,
2015-07-30 06:17:00,66.9,64.8,29.88,South,176,0.0,0.0,93,0.00,,,0.00,Wunderground v.1.15,2015-07-30 10:17:00,
2015-07-30 06:22:00,67.2,65.1,29.88,South,176,0.0,0.0,93,0.00,,,0.00,Wunderground v.1.15,2015-07-30 10:22:00,
2015-07-30 06:27:00,67.6,65.2,29.88,South,176,0.0,0.0,92,0.00,,,0.00,Wunderground v.1.15,2015-07-30 10:27:00,
2015-07-30 06:37:00,68.6,65.9,29.88,South,176,0.0,0.0,91,0.00,,,0.00,Wunderground v.1.15,2015-07-30 10:37:00,
2015-07-30 06:42:00,69.0,65.9,29.88,South,176,0.0,0.0,90,0.00,,,0.00,Wunderground v.1.15,2015-07-30 10:42:00,
2015-07-30 06:47:00,69.6,66.2,29.88,South,176,0.0,2.0,89,0.00,,,0.00,Wunderground v.1.15,2015-07-30 10:47:00,
2015-07-30 06:52:00,70.3,66.6,29.88,South,176,0.0,1.0,88,0.00,,,0.00,Wunderground v.1.15,2015-07-30 10:52:00,
2015-07-30 06:57:00,71.1,67.0,29.88,South,176,0.0,1.0,87,0.00,,,0.00,Wunderground v.1.15,2015-07-30 10:57:00,
2015-07-30 07:02:00,71.9,67.1,29.88,South,176,0.0,0.0,85,0.00,,,0.00,Wunderground v.1.15,2015-07-30 11:02:00,
2015-07-30 07:07:00,72.7,67.6,29.88,South,176,0.0,0.0,84,0.00,,,0.00,Wunderground v.1.15,2015-07-30 11:07:00,
2015-07-30 07:12:00,73.3,68.2,29.88,South,176,0.0,0.0,84,0.00,,,0.00,Wunderground v.1.15,2015-07-30 11:12:00,
2015-07-30 07:17:00,73.9,68.4,29.88,South,176,0.0,0.0,83,0.00,,,0.00,Wunderground v.1.15,2015-07-30 11:17:00,
2015-07-30 07:22:00,74.5,67.9,29.88,South,176,0.0,1.0,80,0.00,,,0.00,Wunderground v.1.15,2015-07-30 11:22:00,
2015-07-30 07:27:00,74.5,68.3,29.88,South,176,0.0,1.0,81,0.00,,,0.00,Wunderground v.1.15,2015-07-30 11:27:00,
2015-07-30 07:32:00,74.5,68.3,29.88,South,176,1.0,3.0,81,0.00,,,0.00,Wunderground v.1.15,2015-07-30 11:32:00,
2015-07-30 07:37:00,74.1,67.5,29.88,South,176,0.0,3.0,80,0.00,,,0.00,Wunderground v.1.15,2015-07-30 11:37:00,
2015-07-30 07:42:00,74.1,67.9,29.88,South,176,0.0,0.0,81,0.00,,,0.00,Wunderground v.1.15,2015-07-30 11:42:00,
2015-07-30 07:47:00,74.1,68.3,29.88,South,176,0.0,2.0,82,0.00,,,0.00,Wunderground v.1.15,2015-07-30 11:47:00,
2015-07-30 07:52:00,74.1,68.3,29.88,South,176,0.0,0.0,82,0.00,,,0.00,Wunderground v.1.15,2015-07-30 11:52:00,
2015-07-30 07:57:00,74.1,67.9,29.88,South,176,0.0,1.0,81,0.00,,,0.00,Wunderground v.1.15,2015-07-30 11:57:00,
2015-07-30 08:02:00,74.2,68.0,29.87,South,176,0.0,0.0,81,0.00,,,0.00,Wunderground v.1.15,2015-07-30 12:02:00,
2015-07-30 08:07:00,74.4,68.2,29.87,South,176,0.0,1.0,81,0.00,,,0.00,Wunderground v.1.15,2015-07-30 12:07:00,
2015-07-30 08:12:00,74.6,68.7,29.87,South,176,0.0,0.0,82,0.00,,,0.00,Wunderground v.1.15,2015-07-30 12:12:00,
2015-07-30 08:17:00,74.8,68.6,29.87,South,176,0.0,1.0,81,0.00,,,0.00,Wunderground v.1.15,2015-07-30 12:17:00,
2015-07-30 08:22:00,74.9,68.3,29.87,South,176,0.0,2.0,80,0.00,,,0.00,Wunderground v.1.15,2015-07-30 12:22:00,
2015-07-30 08:27:00,75.0,68.0,29.87,South,176,1.0,3.0,79,0.00,,,0.00,Wunderground v.1.15,2015-07-30 12:27:00,
2015-07-30 08:32:00,75.2,68.6,29.87,South,176,0.0,1.0,80,0.00,,,0.00,Wunderground v.1.15,2015-07-30 12:32:00,
2015-07-30 08:37:00,75.6,69.4,29.86,South,176,0.0,1.0,81,0.00,,,0.00,Wunderground v.1.15,2015-07-30 12:37:00,
2015-07-30 08:42:00,75.7,69.1,29.86,South,176,0.0,1.0,80,0.00,,,0.00,Wunderground v.1.15,2015-07-30 12:42:00,
2015-07-30 08:47:00,75.8,68.8,29.86,South,176,0.0,1.0,79,0.00,,,0.00,Wunderground v.1.15,2015-07-30 12:47:00,
2015-07-30 08:52:00,76.1,68.7,29.86,South,176,1.0,3.0,78,0.00,,,0.00,Wunderground v.1.15,2015-07-30 12:52:00,
2015-07-30 08:57:00,76.5,69.5,29.86,South,176,0.0,3.0,79,0.00,,,0.00,Wunderground v.1.15,2015-07-30 12:57:00,
2015-07-30 09:02:00,76.8,69.4,29.86,South,176,1.0,1.0,78,0.00,,,0.00,Wunderground v.1.15,2015-07-30 13:02:00,
2015-07-30 09:07:00,76.9,69.5,29.86,South,176,0.0,3.0,78,0.00,,,0.00,Wunderground v.1.15,2015-07-30 13:07:00,
2015-07-30 09:12:00,76.9,69.9,29.86,South,176,0.0,1.0,79,0.00,,,0.00,Wunderground v.1.15,2015-07-30 13:12:00,
2015-07-30 09:17:00,77.0,69.2,29.86,South,176,0.0,1.0,77,0.00,,,0.00,Wunderground v.1.15,2015-07-30 13:17:00,
2015-07-30 09:22:00,77.0,68.9,29.85,South,176,1.0,1.0,76,0.00,,,0.00,Wunderground v.1.15,2015-07-30 13:22:00,
2015-07-30 09:27:00,77.0,69.6,29.85,South,176,0.0,1.0,78,0.00,,,0.00,Wunderground v.1.15,2015-07-30 13:27:00,
2015-07-30 09:37:00,77.3,69.5,29.85,South,176,0.0,1.0,77,0.00,,,0.00,Wunderground v.1.15,2015-07-30 13:37:00,
2015-07-30 09:42:00,77.3,69.1,29.85,South,176,1.0,2.0,76,0.00,,,0.00,Wunderground v.1.15,2015-07-30 13:42:00,
2015-07-30 09:47:00,77.0,68.9,29.85,South,176,1.0,3.0,76,0.00,,,0.00,Wunderground v.1.15,2015-07-30 13:47:00,
2015-07-30 09:52:00,77.3,69.1,29.84,South,176,0.0,4.0,76,0.00,,,0.00,Wunderground v.1.15,2015-07-30 13:52:00,
2015-07-30 09:57:00,77.9,70.1,29.84,South,176,0.0,4.0,77,0.00,,,0.00,Wunderground v.1.15,2015-07-30 13:57:00,
2015-07-30 10:02:00,78.6,70.4,29.84,South,176,0.0,0.0,76,0.00,,,0.00,Wunderground v.1.15,2015-07-30 14:02:00,
2015-07-30 10:07:00,79.2,70.6,29.84,South,176,1.0,2.0,75,0.00,,,0.00,Wunderground v.1.15,2015-07-30 14:07:00,
2015-07-30 10:12:00,79.6,70.2,29.84,South,176,1.0,5.0,73,0.00,,,0.00,Wunderground v.1.15,2015-07-30 14:12:00,
2015-07-30 10:18:00,80.0,70.6,29.84,South,176,1.0,5.0,73,0.00,,,0.00,Wunderground v.1.15,2015-07-30 14:18:00,
2015-07-30 10:23:00,80.4,70.1,29.84,South,176,3.0,3.0,71,0.00,,,0.00,Wunderground v.1.15,2015-07-30 14:23:00,
2015-07-30 10:28:00,80.8,70.5,29.84,South,176,1.0,4.0,71,0.00,,,0.00,Wunderground v.1.15,2015-07-30 14:28:00,
2015-07-30 10:33:00,80.7,70.0,29.84,South,176,1.0,6.0,70,0.00,,,0.00,Wunderground v.1.15,2015-07-30 14:33:00,
2015-07-30 10:38:00,80.8,70.5,29.84,South,176,0.0,6.0,71,0.00,,,0.00,Wunderground v.1.15,2015-07-30 14:38:00,
2015-07-30 10:43:00,80.8,70.9,29.84,South,176,0.0,3.0,72,0.00,,,0.00,Wunderground v.1.15,2015-07-30 14:43:00,
2015-07-30 10:48:00,80.8,70.5,29.83,South,176,1.0,4.0,71,0.00,,,0.00,Wunderground v.1.15,2015-07-30 14:48:00,
2015-07-30 10:53:00,81.3,71.0,29.83,South,176,1.0,5.0,71,0.00,,,0.00,Wunderground v.1.15,2015-07-30 14:53:00,
2015-07-30 10:58:00,81.9,71.6,29.83,South,176,2.0,5.0,71,0.00,,,0.00,Wunderground v.1.15,2015-07-30 14:58:00,
2015-07-30 11:03:00,82.5,70.9,29.83,South,176,3.0,4.0,68,0.00,,,0.00,Wunderground v.1.15,2015-07-30 15:03:00,
2015-07-30 11:08:00,82.7,71.1,29.83,South,176,0.0,6.0,68,0.00,,,0.00,Wunderground v.1.15,2015-07-30 15:08:00,
2015-07-30 11:13:00,83.3,70.8,29.83,South,176,1.0,5.0,66,0.00,,,0.00,Wunderground v.1.15,2015-07-30 15:13:00,
2015-07-30 11:18:00,83.6,70.6,29.83,South,176,2.0,5.0,65,0.00,,,0.00,Wunderground v.1.15,2015-07-30 15:18:00,
2015-07-30 11:23:00,83.7,72.0,29.83,South,176,2.0,4.0,68,0.00,,,0.00,Wunderground v.1.15,2015-07-30 15:23:00,
2015-07-30 11:28:00,83.8,71.2,29.83,South,176,0.0,6.0,66,0.00,,,0.00,Wunderground v.1.15,2015-07-30 15:28:00,
2015-07-30 11:33:00,84.4,71.8,29.82,South,176,1.0,3.0,66,0.00,,,0.00,Wunderground v.1.15,2015-07-30 15:33:00,
2015-07-30 11:38:00,84.5,71.0,29.82,South,176,0.0,6.0,64,0.00,,,0.00,Wunderground v.1.15,2015-07-30 15:38:00,
2015-07-30 11:48:00,84.9,72.7,29.82,South,176,0.0,6.0,67,0.00,,,0.00,Wunderground v.1.15,2015-07-30 15:48:00,
2015-07-30 11:53:00,84.8,71.7,29.82,South,176,2.0,4.0,65,0.00,,,0.00,Wunderground v.1.15,2015-07-30 15:53:00,
2015-07-30 11:58:00,84.6,71.5,29.82,South,176,2.0,4.0,65,0.00,,,0.00,Wunderground v.1.15,2015-07-30 15:58:00,
2015-07-30 12:03:00,84.4,72.7,29.82,South,176,0.0,2.0,68,0.00,,,0.00,Wunderground v.1.15,2015-07-30 16:03:00,
2015-07-30 12:08:00,84.5,71.9,29.82,South,176,2.0,8.0,66,0.00,,,0.00,Wunderground v.1.15,2015-07-30 16:08:00,
2015-07-30 12:18:00,84.5,72.3,29.81,South,176,0.0,9.0,67,0.00,,,0.00,Wunderground v.1.15,2015-07-30 16:18:00,
2015-07-30 12:23:00,84.6,72.9,29.81,South,176,5.0,7.0,68,0.00,,,0.00,Wunderground v.1.15,2015-07-30 16:23:00,
2015-07-30 12:28:00,85.3,73.5,29.81,South,176,2.0,7.0,68,0.00,,,0.00,Wunderground v.1.15,2015-07-30 16:28:00,
2015-07-30 12:33:00,85.1,72.9,29.81,South,176,1.0,6.0,67,0.00,,,0.00,Wunderground v.1.15,2015-07-30 16:33:00,
2015-07-30 12:38:00,84.4,73.5,29.80,South,176,0.0,6.0,70,0.00,,,0.00,Wunderground v.1.15,2015-07-30 16:38:00,
2015-07-30 12:43:00,84.4,74.4,29.80,South,176,1.0,4.0,72,0.00,,,0.00,Wunderground v.1.15,2015-07-30 16:43:00,
2015-07-30 12:48:00,84.2,73.3,29.80,South,176,4.0,4.0,70,0.00,,,0.00,Wunderground v.1.15,2015-07-30 16:48:00,
2015-07-30 12:53:00,83.7,73.3,29.80,South,176,1.0,2.0,71,0.00,,,0.00,Wunderground v.1.15,2015-07-30 16:53:00,
2015-07-30 12:58:00,83.8,73.4,29.80,South,176,1.0,6.0,71,0.00,,,0.00,Wunderground v.1.15,2015-07-30 16:58:00,
2015-07-30 13:03:00,83.2,73.2,29.79,South,176,4.0,4.0,72,0.00,,,0.00,Wunderground v.1.15,2015-07-30 17:03:00,
2015-07-30 13:08:00,82.8,72.8,29.79,South,176,0.0,4.0,72,0.00,,,0.00,Wunderground v.1.15,2015-07-30 17:08:00,
2015-07-30 13:13:00,83.3,74.1,29.79,South,176,1.0,3.0,74,0.00,,,0.00,Wunderground v.1.15,2015-07-30 17:13:00,
2015-07-30 13:18:00,83.9,73.5,29.80,South,176,0.0,8.0,71,0.00,,,0.00,Wunderground v.1.15,2015-07-30 17:18:00,
2015-07-30 13:23:00,84.0,73.6,29.79,South,176,1.0,4.0,71,0.00,,,0.00,Wunderground v.1.15,2015-07-30 17:23:00,
2015-07-30 13:28:00,84.3,73.9,29.80,South,176,4.0,7.0,71,0.00,,,0.00,Wunderground v.1.15,2015-07-30 17:28:00,
2015-07-30 13:33:00,84.1,74.1,29.79,South,176,2.0,8.0,72,0.00,,,0.00,Wunderground v.1.15,2015-07-30 17:33:00,
2015-07-30 13:38:00,84.1,73.7,29.79,South,176,1.0,9.0,71,0.00,,,0.00,Wunderground v.1.15,2015-07-30 17:38:00,
2015-07-30 13:43:00,83.4,73.4,29.79,South,176,1.0,8.0,72,0.00,,,0.00,Wunderground v.1.15,2015-07-30 17:43:00,
2015-07-30 13:48:00,82.9,72.9,29.79,South,176,0.0,8.0,72,0.00,,,0.00,Wunderground v.1.15,2015-07-30 17:48:00,
2015-07-30 13:53:00,82.6,73.5,29.79,South,176,1.0,5.0,74,0.00,,,0.00,Wunderground v.1.15,2015-07-30 17:53:00,
2015-07-30 13:58:00,82.1,73.0,29.79,South,176,2.0,5.0,74,0.00,,,0.00,Wunderground v.1.15,2015-07-30 17:58:00,
2015-07-30 14:03:00,81.6,72.9,29.79,South,176,2.0,3.0,75,0.00,,,0.00,Wunderground v.1.15,2015-07-30 18:03:00,
2015-07-30 14:08:00,81.1,72.4,29.78,South,176,1.0,4.0,75,0.00,,,0.00,Wunderground v.1.15,2015-07-30 18:08:00,
2015-07-30 14:18:00,80.6,72.3,29.78,South,176,0.0,4.0,76,0.00,,,0.00,Wunderground v.1.15,2015-07-30 18:18:00,
2015-07-30 14:23:00,80.5,72.6,29.78,South,176,2.0,5.0,77,0.00,,,0.00,Wunderground v.1.15,2015-07-30 18:23:00,
2015-07-30 14:28:00,80.5,73.0,29.78,South,176,1.0,5.0,78,0.00,,,0.00,Wunderground v.1.15,2015-07-30 18:28:00,